ACA343 CYOW-CYVR

Flight info

Callsign ACA343
Flight time N/A
Altitude 34000
Route RADEN DCT YUY DCT 5084N DCT 52N092W DCT POPLR DCT REFEX/N0446F360 DCT NADPI DCT BOOTH CANUC6
Aircraft A321/M-SDE3FGHIJ7M3P2RWY/LB1

Departure

Time N/A
Airport Ottawa Macdonald-Cartier International Airport (CYOW)

Arrival

Time 2026-05-07 22:33
Airport Vancouver International Airport (CYVR)
Time Latitude Longitude Altitude Speed Heading
2026-05-07 21:58 50.83464 -119.33034 32779 ft 374 kts 244°
2026-05-07 21:58 50.81945 -119.36343 32424 ft 367 kts 244°
2026-05-07 21:59 50.80468 -119.39568 31926 ft 364 kts 244°
2026-05-07 21:59 50.78996 -119.42776 31656 ft 362 kts 244°
2026-05-07 21:59 50.77523 -119.45985 31390 ft 361 kts 244°
2026-05-07 21:59 50.76037 -119.49214 31123 ft 359 kts 244°
2026-05-07 22:00 50.74575 -119.52382 30859 ft 357 kts 244°
2026-05-07 22:00 50.73124 -119.55518 30599 ft 357 kts 244°
2026-05-07 22:00 50.71663 -119.58675 30330 ft 355 kts 244°
2026-05-07 22:00 50.70221 -119.61789 30066 ft 354 kts 244°
2026-05-07 22:01 50.68768 -119.64919 29806 ft 352 kts 244°
2026-05-07 22:01 50.67328 -119.68017 29546 ft 351 kts 243°
2026-05-07 22:01 50.65873 -119.71146 29280 ft 350 kts 243°
2026-05-07 22:01 50.64442 -119.74217 29023 ft 351 kts 243°
2026-05-07 22:02 50.63000 -119.77308 28762 ft 350 kts 243°
2026-05-07 22:02 50.61576 -119.80357 28509 ft 349 kts 243°
2026-05-07 22:02 50.60141 -119.83427 28249 ft 348 kts 243°
2026-05-07 22:02 50.58694 -119.86518 27986 ft 347 kts 243°
2026-05-07 22:03 50.57270 -119.89560 27727 ft 346 kts 242°
2026-05-07 22:03 50.55851 -119.92580 27466 ft 344 kts 242°
2026-05-07 22:03 50.54435 -119.95596 27209 ft 344 kts 242°
2026-05-07 22:03 50.53007 -119.98649 27074 ft 356 kts 242°
2026-05-07 22:04 50.51501 -120.01865 27068 ft 369 kts 242°
2026-05-07 22:04 50.49968 -120.05134 27070 ft 382 kts 241°
2026-05-07 22:04 50.48362 -120.08546 27071 ft 394 kts 241°
2026-05-07 22:04 50.46713 -120.12037 27065 ft 406 kts 240°
2026-05-07 22:05 50.45008 -120.15643 27057 ft 417 kts 240°
2026-05-07 22:05 50.43262 -120.19325 27049 ft 426 kts 240°
2026-05-07 22:05 50.41497 -120.23038 27048 ft 429 kts 240°
2026-05-07 22:05 50.39720 -120.26765 27041 ft 430 kts 240°
2026-05-07 22:06 50.37941 -120.30494 27043 ft 429 kts 240°
2026-05-07 22:06 50.36156 -120.34236 27042 ft 429 kts 240°
2026-05-07 22:06 50.34386 -120.37942 27050 ft 429 kts 240°
2026-05-07 22:06 50.32593 -120.41687 27049 ft 429 kts 240°
2026-05-07 22:07 50.30823 -120.45386 27050 ft 429 kts 240°
2026-05-07 22:07 50.29039 -120.49107 27052 ft 429 kts 240°
2026-05-07 22:07 50.27238 -120.52856 27048 ft 429 kts 240°
2026-05-07 22:07 50.25468 -120.56538 27050 ft 429 kts 239°
2026-05-07 22:08 50.23667 -120.60281 27050 ft 428 kts 239°
2026-05-07 22:08 50.21924 -120.63897 27052 ft 428 kts 239°
2026-05-07 22:08 50.20105 -120.67663 27058 ft 429 kts 239°
2026-05-07 22:08 50.18317 -120.71362 27059 ft 428 kts 239°
2026-05-07 22:09 50.16518 -120.75076 27057 ft 429 kts 239°
2026-05-07 22:09 50.14734 -120.78760 27058 ft 428 kts 239°
2026-05-07 22:09 50.12950 -120.82435 27056 ft 428 kts 238°
2026-05-07 22:09 50.11146 -120.86145 27053 ft 428 kts 238°
2026-05-07 22:10 50.09363 -120.89806 27048 ft 428 kts 239°
2026-05-07 22:10 50.07549 -120.93528 27045 ft 428 kts 238°
2026-05-07 22:10 50.05768 -120.97173 27044 ft 428 kts 238°
2026-05-07 22:10 50.03959 -121.00877 27039 ft 428 kts 238°
2026-05-07 22:11 50.02168 -121.04535 27037 ft 428 kts 238°
2026-05-07 22:11 50.00431 -121.08079 27038 ft 427 kts 238°
2026-05-07 22:11 49.98633 -121.11744 26814 ft 425 kts 238°
2026-05-07 22:11 49.96872 -121.15315 26556 ft 413 kts 238°
2026-05-07 22:12 49.95140 -121.18822 26282 ft 401 kts 238°
2026-05-07 22:12 49.94291 -121.20542 26142 ft 396 kts 238°
2026-05-07 22:12 49.93432 -121.22282 25996 ft 394 kts 238°
2026-05-07 22:12 49.91161 -121.26884 25504 ft 392 kts 238°
2026-05-07 22:13 49.89500 -121.30248 25050 ft 389 kts 238°
2026-05-07 22:13 49.87864 -121.33556 24578 ft 387 kts 238°
2026-05-07 22:13 49.86216 -121.36884 24070 ft 383 kts 238°
2026-05-07 22:13 49.84612 -121.40115 23590 ft 380 kts 238°
2026-05-07 22:14 49.82990 -121.43382 23126 ft 376 kts 238°
2026-05-07 22:14 49.81424 -121.46531 22661 ft 373 kts 238°
2026-05-07 22:14 49.79851 -121.49692 22188 ft 370 kts 238°
2026-05-07 22:14 49.78292 -121.52820 21709 ft 368 kts 237°
2026-05-07 22:15 49.76728 -121.55956 21230 ft 366 kts 237°
2026-05-07 22:15 49.75183 -121.59046 20771 ft 363 kts 237°
2026-05-07 22:15 49.73651 -121.62109 20305 ft 362 kts 237°
2026-05-07 22:15 49.72131 -121.65143 19834 ft 360 kts 236°
2026-05-07 22:16 49.70594 -121.68205 19357 ft 359 kts 236°
2026-05-07 22:16 49.69045 -121.71291 18865 ft 358 kts 235°
2026-05-07 22:16 49.67514 -121.74335 18373 ft 358 kts 235°
2026-05-07 22:16 49.66007 -121.77331 17862 ft 358 kts 235°
2026-05-07 22:17 49.64476 -121.80366 17374 ft 358 kts 235°
2026-05-07 22:17 49.62955 -121.83384 16900 ft 357 kts 234°
2026-05-07 22:17 49.61443 -121.86375 16430 ft 355 kts 234°
2026-05-07 22:17 49.59938 -121.89349 15982 ft 354 kts 234°
2026-05-07 22:18 49.58421 -121.92347 15516 ft 354 kts 234°
2026-05-07 22:18 49.55407 -121.98283 14561 ft 351 kts 233°
2026-05-07 22:18 49.53894 -122.01260 14115 ft 350 kts 233°
2026-05-07 22:19 49.52431 -122.04237 13634 ft 349 kts 236°
2026-05-07 22:19 49.51114 -122.07320 13178 ft 347 kts 239°
2026-05-07 22:19 49.49853 -122.10447 12712 ft 345 kts 239°
2026-05-07 22:19 49.48598 -122.13574 12238 ft 343 kts 239°
2026-05-07 22:20 49.47344 -122.16696 11782 ft 342 kts 239°
2026-05-07 22:20 49.46120 -122.19767 11345 ft 340 kts 239°
2026-05-07 22:20 49.44919 -122.22804 11103 ft 323 kts 239°
2026-05-07 22:20 49.43789 -122.25655 10964 ft 299 kts 239°
2026-05-07 22:21 49.42746 -122.28278 10846 ft 285 kts 239°
2026-05-07 22:21 49.41727 -122.30841 10729 ft 274 kts 239°
2026-05-07 22:21 49.40754 -122.33268 10570 ft 266 kts 237°
2026-05-07 22:21 49.39683 -122.35570 10410 ft 265 kts 232°
2026-05-07 22:22 49.38496 -122.37714 10063 ft 265 kts 229°
2026-05-07 22:22 49.37270 -122.39833 9734 ft 264 kts 228°
2026-05-07 22:22 49.36066 -122.41906 9433 ft 263 kts 228°
2026-05-07 22:22 49.34849 -122.43995 9091 ft 262 kts 228°
2026-05-07 22:23 49.33628 -122.46074 8768 ft 260 kts 228°
2026-05-07 22:23 49.32428 -122.48114 8460 ft 259 kts 228°
2026-05-07 22:23 49.31224 -122.50163 8159 ft 258 kts 228°
2026-05-07 22:23 49.30022 -122.52205 7853 ft 258 kts 228°
2026-05-07 22:24 49.28827 -122.54236 7529 ft 257 kts 228°
2026-05-07 22:24 49.27650 -122.56243 7204 ft 255 kts 228°
2026-05-07 22:24 49.26461 -122.58273 6877 ft 254 kts 228°
2026-05-07 22:24 49.25290 -122.60271 6569 ft 252 kts 228°
2026-05-07 22:25 49.24132 -122.62245 6294 ft 250 kts 229°
2026-05-07 22:25 49.22977 -122.64214 5999 ft 249 kts 228°
2026-05-07 22:25 49.21826 -122.66177 5696 ft 247 kts 227°
2026-05-07 22:25 49.20737 -122.68217 5396 ft 246 kts 234°
2026-05-07 22:26 49.19804 -122.70370 5133 ft 243 kts 238°
2026-05-07 22:26 49.18924 -122.72544 4884 ft 240 kts 238°
2026-05-07 22:26 49.18047 -122.74721 4657 ft 235 kts 238°
2026-05-07 22:26 49.17216 -122.76779 4515 ft 226 kts 238°
2026-05-07 22:27 49.16457 -122.78821 4443 ft 213 kts 249°
2026-05-07 22:27 49.16168 -122.80937 4368 ft 197 kts 267°
2026-05-07 22:27 49.16231 -122.82991 4242 ft 195 kts 278°
2026-05-07 22:27 49.16480 -122.85005 3980 ft 193 kts 283°
2026-05-07 22:28 49.16763 -122.86994 3726 ft 192 kts 283°
2026-05-07 22:28 49.17027 -122.88992 3478 ft 191 kts 282°
2026-05-07 22:28 49.17265 -122.90988 3232 ft 190 kts 281°
2026-05-07 22:28 49.17485 -122.92961 2979 ft 190 kts 280°
2026-05-07 22:29 49.17696 -122.94899 2751 ft 178 kts 280°
2026-05-07 22:29 49.17891 -122.96704 2498 ft 168 kts 280°
2026-05-07 22:29 49.18083 -122.98462 2276 ft 168 kts 280°
2026-05-07 22:29 49.18278 -123.00233 2053 ft 168 kts 280°
2026-05-07 22:30 49.18471 -123.01973 1837 ft 168 kts 280°
2026-05-07 22:30 49.18667 -123.03730 1617 ft 167 kts 280°
2026-05-07 22:30 49.18860 -123.05461 1386 ft 158 kts 279°
2026-05-07 22:30 49.19042 -123.07053 1147 ft 146 kts 280°
2026-05-07 22:31 49.19225 -123.08576 953 ft 144 kts 279°
2026-05-07 22:31 49.19381 -123.10068 786 ft 143 kts 278°
2026-05-07 22:31 49.19549 -123.11565 603 ft 142 kts 279°
2026-05-07 22:31 49.19722 -123.13059 418 ft 140 kts 279°
2026-05-07 22:32 49.19891 -123.14534 253 ft 139 kts 278°
2026-05-07 22:32 49.20050 -123.15976 65 ft 138 kts 278°
2026-05-07 22:32 49.20204 -123.17350 11 ft 118 kts 280°
2026-05-07 22:32 49.20317 -123.18328 11 ft 67 kts 280°
2026-05-07 22:33 49.20387 -123.18951 11 ft 50 kts 277°
2026-05-07 22:33 49.20362 -123.19319 11 ft 22 kts 251°
2026-05-07 22:33 49.20322 -123.19486 11 ft 15 kts 248°
2026-05-07 22:33 49.20287 -123.19612 11 ft 7 kts 221°
2026-05-07 22:34 49.20246 -123.19584 11 ft 8 kts 103°
2026-05-07 22:34 49.20236 -123.19488 11 ft 9 kts 99°
2026-05-07 22:34 49.20223 -123.19379 11 ft 10 kts 100°
2026-05-07 22:34 49.20209 -123.19262 11 ft 11 kts 100°
2026-05-07 22:35 49.20195 -123.19133 11 ft 12 kts 100°
2026-05-07 22:35 49.20179 -123.18997 11 ft 13 kts 100°
2026-05-07 22:35 49.20163 -123.18852 11 ft 14 kts 99°
2026-05-07 22:35 49.20146 -123.18702 11 ft 14 kts 100°
2026-05-07 22:36 49.20129 -123.18555 11 ft 9 kts 99°
2026-05-07 22:36 49.20089 -123.18502 11 ft 9 kts 179°
2026-05-07 22:36 49.20021 -123.18517 11 ft 10 kts 190°
2026-05-07 22:36 49.19950 -123.18536 11 ft 10 kts 190°
2026-05-07 22:37 49.19875 -123.18556 11 ft 11 kts 189°
2026-05-07 22:37 49.19800 -123.18576 11 ft 10 kts 190°
2026-05-07 22:37 49.19730 -123.18579 11 ft 9 kts 149°
2026-05-07 22:37 49.19706 -123.18486 11 ft 9 kts 99°
2026-05-07 22:38 49.19694 -123.18385 11 ft 9 kts 100°
2026-05-07 22:38 49.19685 -123.18309 11 ft 5 kts 100°
2026-05-07 22:38 49.19670 -123.18279 11 ft 3 kts 166°
2026-05-07 22:38 49.19644 -123.18285 11 ft 2 kts 197°
2026-05-07 22:39 49.19628 -123.18294 11 ft 2 kts 197°
2026-05-07 22:39 49.19617 -123.18298 11 ft 0 kts 197°
2026-05-07 22:39 49.19616 -123.18299 11 ft 0 kts 198°